Date,TemperatureHighF,TemperatureAvgF,TemperatureLowF,DewpointHighF,DewpointAvgF,DewpointLowF,HumidityHigh,HumidityAvg,HumidityLow,PressureMaxIn,PressureMinIn,WindSpeedMaxMPH,WindSpeedAvgMPH,GustSpeedMaxMPH,PrecipitationSumIn
2013-10-1,79,63,52,60,54,51,97,76,40,30.08,29.95,10,1,10,0.00
2013-10-2,83,60,50,63,56,49,99,86,48,30.07,29.98,11,0,11,0.00
2013-10-3,80,65,54,63,58,54,99,81,53,30.16,30.02,7,0,7,0.00
2013-10-4,83,69,62,67,64,60,98,85,58,30.09,29.99,9,0,9,0.22
2013-10-5,82,70,65,69,66,64,99,88,63,30.11,29.99,5,0,5,0.02
2013-10-6,81,71,63,69,66,62,99,87,65,30.02,29.90,7,1,12,0.01
2013-10-7,72,64,51,67,57,43,94,80,54,30.04,29.69,14,1,14,1.01
2013-10-8,68,54,42,49,43,38,98,70,34,30.37,30.05,9,0,9,0.00
2013-10-9,65,51,40,48,42,38,98,75,39,30.44,30.32,8,0,8,0.00
2013-10-10,62,51,42,52,45,41,97,83,51,30.33,30.15,7,0,7,0.29
2013-10-11,67,58,50,56,51,45,95,79,51,30.15,30.06,8,0,8,0.62
2013-10-12,76,61,51,54,46,35,95,63,24,30.25,30.10,9,0,9,0.00
2013-10-13,68,60,53,52,50,43,87,70,50,30.35,30.25,7,0,7,0.00
2013-10-14,66,57,51,55,52,48,94,82,66,30.37,30.26,6,0,6,0.00
2013-10-15,73,59,48,57,52,48,99,79,50,30.28,30.09,10,0,10,0.00
2013-10-16,62,58,54,57,51,41,89,77,60,30.09,29.90,6,0,6,0.00
2013-10-17,71,62,56,60,56,51,96,80,53,29.93,29.64,10,1,11,0.63
2013-10-18,62,52,42,52,43,39,93,74,44,30.02,29.78,15,1,15,0.00
2013-10-19,55,46,36,51,43,35,98,90,68,30.02,29.75,15,0,15,0.06
2013-10-20,59,49,39,41,38,35,87,66,42,30.09,29.86,11,1,15,0.00
2013-10-21,65,49,33,43,38,32,97,72,38,30.17,29.94,13,1,13,0.00
2013-10-22,59,51,43,46,38,29,85,61,35,29.94,29.81,15,1,15,0.00
2013-10-23,48,42,36,37,34,30,89,75,55,29.87,29.73,7,0,7,0.00
2013-10-24,48,41,35,34,31,27,88,69,44,30.09,29.87,11,1,16,0.00
2013-10-25,52,42,34,37,32,28,87,68,49,30.27,30.09,13,1,13,0.00
2013-10-26,53,41,26,34,28,24,97,64,33,30.27,29.92,18,2,18,0.00
2013-10-27,52,45,34,36,32,29,83,61,43,30.16,29.92,13,1,13,0.00
2013-10-28,60,42,27,38,33,26,96,73,41,30.36,30.15,5,0,10,0.00
2013-10-29,54,43,34,37,33,31,89,70,47,30.47,30.35,7,0,7,0.00
2013-10-30,64,46,34,47,39,31,92,76,47,30.35,30.15,6,0,6,0.00
2013-10-31,60,55,47,59,53,42,98,94,83,30.21,29.69,7,0,7,0.28